Weather History for Minneapolis Flying Cloud, MN

Change the Weather History Date:

Monday, May 7, 2012

  Actual Average Record
Temperature  
Mean Temperature 58 °F -  
Max Temperature 66 °F 65 °F 82 °F (2000)
Min Temperature 51 °F 44 °F 39 °F (2002)
Degree Days  
Heating Degree Days 6    
Growing Degree Days 8 (Base 50)    
Moisture  
Dew Point 45 °F    
Average Humidity 63    
Maximum Humidity 93    
Minimum Humidity 38    
Precipitation  
Precipitation 0.00 in - - ()
Sea Level Pressure  
Sea Level Pressure 29.94 in    
Wind  
Wind Speed 7 mph (West)    
Max Wind Speed 18 mph    
Max Gust Speed 29 mph    
Visibility 10 miles    
Events      
Averages and records for this station are not official NWS values.
T = Trace of Precipitation, MM = Missing Value Source: NWS Daily Summary

Daily Weather History Graph

Daily Weather History Graph

Search for Another Location

Airport:

Trip Planner

Search our weather history database for the weather conditions in past years. The results will help you decide how hot, cold, wet, or windy it might be!

Date:

Astronomy

May. 07, 2012 Rise Set
Actual Time 5:54 AM CDT 8:27 PM CDT
Civil Twilight 5:21 AM CDT 9:00 PM CDT
Nautical Twilight 4:40 AM CDT 9:41 PM CDT
Astronomical Twilight 3:52 AM CDT 10:29 PM CDT
Moon 10:43 PM CDT (5/7) 6:57 AM CDT (5/7)
Length of Visible Light 15h 38m
Length of Day
14h 32m
Waning Gibbous, 96% of the Moon is Illuminated
May 7
Waning Gibbous
May 12
Last Quarter
May 20
New
May 28
First Quarter
Jun 4
Full

Hourly Weather History & Observations

Time (CDT) Temp. Dew Point Humidity Pressure Visibility Wind Dir Wind Speed Gust Speed Precip Events Conditions
12:53 AM 60.1 °F 55.9 °F 86% 29.99 in 10.0 mi WNW 5.8 mph - N/A   Overcast
1:53 AM 57.9 °F 54.0 °F 87% 29.98 in 10.0 mi Calm Calm - N/A   Mostly Cloudy
2:37 AM 57.2 °F 53.6 °F 88% 29.96 in 10.0 mi West 3.5 mph - N/A   Scattered Clouds
2:53 AM 55.9 °F 53.1 °F 90% 29.96 in 10.0 mi West 3.5 mph - N/A   Clear
3:53 AM 54.0 °F 52.0 °F 93% 29.95 in 4.0 mi WSW 3.5 mph - N/A   Clear
4:53 AM 53.1 °F 51.1 °F 93% 29.96 in 8.0 mi WSW 4.6 mph - N/A   Clear
5:53 AM 52.0 °F 45.0 °F 77% 29.96 in 10.0 mi WNW 8.1 mph - N/A   Clear
6:53 AM 51.1 °F 44.1 °F 77% 29.97 in 10.0 mi West 6.9 mph - N/A   Clear
7:53 AM 55.0 °F 42.1 °F 62% 29.98 in 10.0 mi NW 9.2 mph - N/A   Clear
8:53 AM 55.9 °F 42.1 °F 60% 29.97 in 10.0 mi WNW 12.7 mph 18.4 mph N/A   Clear
9:53 AM 57.9 °F 44.1 °F 60% 29.97 in 10.0 mi West 8.1 mph - N/A   Clear
10:53 AM 61.0 °F 45.0 °F 56% 29.95 in 10.0 mi WSW 8.1 mph - N/A   Clear
11:53 AM 62.1 °F 43.0 °F 50% 29.95 in 10.0 mi West 11.5 mph 19.6 mph N/A   Clear
12:53 PM 64.0 °F 45.0 °F 50% 29.95 in 10.0 mi West 12.7 mph 23.0 mph N/A   Clear
1:53 PM 62.1 °F 45.0 °F 53% 29.94 in 10.0 mi WNW 18.4 mph 23.0 mph N/A   Mostly Cloudy
2:53 PM 64.9 °F 44.1 °F 47% 29.94 in 10.0 mi West 17.3 mph 28.8 mph N/A   Partly Cloudy
3:53 PM 64.0 °F 45.0 °F 50% 29.92 in 10.0 mi WNW 11.5 mph 25.3 mph N/A   Mostly Cloudy
4:53 PM 66.9 °F 44.1 °F 44% 29.90 in 10.0 mi West 11.5 mph 19.6 mph N/A   Partly Cloudy
5:53 PM 64.9 °F 39.0 °F 39% 29.90 in 10.0 mi West 17.3 mph 25.3 mph N/A   Partly Cloudy
6:53 PM 64.0 °F 37.9 °F 38% 29.88 in 10.0 mi West 9.2 mph 20.7 mph N/A   Clear
7:53 PM 63.0 °F 39.0 °F 41% 29.88 in 10.0 mi WNW 16.1 mph 26.5 mph N/A   Clear
8:53 PM 60.1 °F 39.0 °F 46% 29.89 in 10.0 mi WNW 8.1 mph - N/A   Clear
9:53 PM 57.0 °F 39.9 °F 53% 29.90 in 10.0 mi West 3.5 mph - N/A   Clear
10:53 PM 54.0 °F 42.1 °F 64% 29.89 in 10.0 mi WSW 4.6 mph - N/A   Clear